Location: Newark
(41.0400°S, 62.7845°W)
Time: 20:11:38
(UTC+00:00)

Courier 1B Rocket - Pass Details

Date: 02 December 2021
Orbit: 920 x 1202 km, 28.2° (Epoch: 15 January)

Event Time Altitude Azimuth Distance (km) Brightness Sun altitude
Rises 14:22:09 0° 324° (NW) 3,990 8.2 61.9°
Reaches altitude 10° 14:25:52 10° 341° (NNW) 3,073 7.9 62.4°
Maximum altitude 14:30:52 19° 22° (NNE) 2,514 7.9 63.2°
Drops below altitude 10° 14:35:57 10° 63° (ENE) 3,140 8.2 63.9°
Sets 14:39:47 0° 79° (E) 4,107 8.6 64.5°
